Location: Raleigh
(35.7720°N, 78.6390°W)
Time: 18:18:18
(UTC-04:00)

JAS-2 - Visible Passes

Search period start: 20 April 2014 00:00
Search period end: 30 April 2014 00:00
Orbit: 799 x 1323 km, 98.5° (Epoch: 20 April)

Date Brightness Start Highest point End Pass type
(mag) Time Alt. Az. Time Alt. Az. Time Alt. Az.
20 Apr 12.3 21:18:18 10° WSW 21:20:08 12° W 21:21:56 10° WNW visible
21 Apr 10.9 20:19:23 10° SSW 20:24:50 38° W 20:29:51 10° NNW visible
22 Apr 12.2 21:12:56 10° WSW 21:15:12 12° W 21:17:25 10° WNW visible
23 Apr 10.7 20:14:28 10° S 20:19:54 41° W 20:24:56 10° NNW visible
24 Apr 12.1 21:07:38 10° WSW 21:10:16 13° W 21:12:48 10° WNW visible
26 Apr 12.0 21:02:24 10° SW 21:05:19 14° W 21:08:09 10° WNW visible
28 Apr 12.0 20:57:12 10° SW 21:00:22 16° W 21:03:27 10° WNW visible
